Regional Weather Roundup
Issued by NWS

Home | Current Version | Previous Version | Graphics & Text | Print | Product List | Glossary On
Versions: 1 2 3 4 5 6 7 8 9 10 11 12 13 14 15 16 17 18 19 20 21 22 23 24 25 26 27 28 29 30 31 32 33 34 35 36 37 38 39 40 41 42 43 44 45 46 47 48 49 50
000
ASUS45 KPSR 280300
RWRAZ

ARIZONA HOURLY REGIONAL WEATHER ROUNDUP
NATIONAL WEATHER SERVICE PHOENIX AZ
800 PM MST THU AUG 27 2015

NOTE: FAIR INDICATES FEW OR NO CLOUDS BELOW 12,000 FEET WITH NO
SIGNIFICANT WEATHER AND/OR OBSTRUCTIONS TO VISIBILITY.

AZZ001>003-036-280400-
NORTHWEST ARIZONA

CITY           SKY/WX    TMP DP  RH WIND       PRES   REMARKS
KINGMAN        PTCLDY    82  53  36 CALM      30.06S
$$

AZZ004>008-015-016-018-280400-
NORTH CENTRAL ARIZONA

CITY           SKY/WX    TMP DP  RH WIND       PRES   REMARKS
GRAND CANYON   MOCLDY    64  45  49 CALM      30.33R
WILLIAMS       CLOUDY    66  54  63 SE3       30.40R
PRESCOTT       CLOUDY    74  60  61 S5        30.22R
FLAGSTAFF      NOT AVBL
PAYSON         CLOUDY    68  63  83 CALM      30.24R
PAGE           PTCLDY    82  52  35 CALM      30.12R
$$

AZZ009>014-017-280400-
NORTHEAST ARIZONA

CITY           SKY/WX    TMP DP  RH WIND       PRES   REMARKS
WINSLOW        NOT AVBL
SAINT JOHNS    CLOUDY    69  58  67 SW7       30.25R
WINDOW ROCK    MOCLDY    68  53  58 SW6       30.31R
SHOW LOW       CLOUDY    63  52  67 S9        30.32S
$$

AZZ023-280400-
GREATER PHOENIX AREA

CITY           SKY/WX    TMP DP  RH WIND       PRES   REMARKS
PHOENIX        CLOUDY    88  73  61 CALM      29.88S
GLENDALE       MOCLDY    93  63  36 CALM      29.90R
LUKE AFB       CLOUDY    85  74  70 NW5       29.88R
DEER VALLEY    CLOUDY    90  64  42 NW6       29.91R
SCOTTSDALE     CLOUDY    88  70  55 SW5       29.92S
MESA-FALCON    MOCLDY    86  66  51 E6        29.90R
MESA-GATEWAY   MOCLDY    91  57  31 N9        29.93R
CHANDLER       MOCLDY    88  68  51 N6        29.91R
$$

AZZ027-028-280400-
SOUTHWEST MARICOPA COUNTY AND PINAL COUNTY

CITY           SKY/WX    TMP DP  RH WIND       PRES   REMARKS
CASA GRANDE    CLOUDY    88  64  45 CALM      29.91F
$$

AZZ503-504-507>509-280400-
SOUTHEAST ARIZONA

CITY           SKY/WX    TMP DP  RH WIND       PRES   REMARKS
TUCSON         TSTM      83  59  44 E24G35    30.03R
DAVIS-MONTHAN  PTCLDY    82  59  46 E26G33    30.02R
RYAN FIELD     CLEAR     86  64  48 E14       30.03R
NOGALES        PTCLDY    79  59  50 NE6       30.10S
SIERRA VISTA   MOCLDY    73  58  59 NE18G25   30.20R
SAFFORD        CLOUDY    75  64  68 NW13G23   30.06F
$$

AZZ020-021-025-026-031-280400-
SOUTHWEST ARIZONA

CITY           SKY/WX    TMP DP  RH WIND       PRES   REMARKS
YUMA           NOT AVBL
$$

CAZ031-033-041-043-047-048-061-280400-
SOUTHERN CALIFORNIA

CITY           SKY/WX    TMP DP  RH WIND       PRES   REMARKS
DOWNTOWN L.A.  CLEAR     79  63  57 VRB3      29.87R
L.A. AIRPORT   PTCLDY    75  69  81 SW9       29.88R
SAN DIEGO      PTCLDY    78  66  66 CALM      29.91R
BURBANK        CLEAR     87  58  37 SE7       29.88R
ONTARIO        PTCLDY    88  52  29 SW9       29.90R
RIVERSIDE      CLEAR     88  57  34 W10       29.90R
PALM SPRINGS   CLEAR    104  59  22 E10G16    29.80R HX 104
EL CENTRO NAS  PTCLDY    99  57  24 E5        29.77R
IMPERIAL       CLEAR    105  56  19 CALM      29.75R HX 104
BLYTHE         PTCLDY   102  63  27 S8        29.79R HX 104
$$

NVZ020-UTZ003-280400-
SOUTHERN NEVADA-UTAH

CITY           SKY/WX    TMP DP  RH WIND       PRES   REMARKS
LAS VEGAS      NOT AVBL
SALT LAKE CITY PTCLDY    79  46  31 N7        30.14R
$$

NMZ009-TXZ055-280400-
NEW MEXICO-WEST TEXAS

CITY           SKY/WX    TMP DP  RH WIND       PRES   REMARKS
ALBUQUERQUE    CLOUDY    78  55  44 SW8       30.18R
EL PASO        CLOUDY    86  55  34 S5        30.06S
$$


........................KEY........................
SKY/WX - SKY CONDITION/WEATHER
TMP    - TEMPERATURE IN FAHRENHEIT
DP     - DEW POINT IN FAHRENHEIT
RH     - RELATIVE HUMIDITY IN PERCENT
WIND   - DIRECTION AND SPEED IN MILES PER HOUR (MPH)
VRB    - VARIABLE WIND DIRECTION
PRES   - MEAN SEA LEVEL PRESSURE IN INCHES OF MERCURY
         F - FALLING PRESSURE   R - RISING PRESSURE
         S - STEADY PRESSURE
VSB    - VISIBILITY IN MILES
HX     - HEAT INDEX IN FAHRENHEIT
WCI    - WIND CHILL INDEX IN FAHRENHEIT
TC     - TEMPERATURE IN CELSIUS WHICH IS ALSO KNOWN AS
         TEMPERATURE IN CENTIGRADE
AFB    - AIR FORCE BASE
         LUKE AFB IS LUKE AIR FORCE BASE
         DAVIS-MONTHAN IS DAVIS-MONTHAN AIR FORCE BASE
NAS    - NAVAL AIR STATION
         EL CENTRO NAS IS EL CENTRO NAVAL AIR STATION
N/A    - NOT AVAILABLE




USA.gov is the U.S. government's official web portal to all federal, state and local government web resources and services.